Date,TemperatureHighF,TemperatureAvgF,TemperatureLowF,DewpointHighF,DewpointAvgF,DewpointLowF,HumidityHigh,HumidityAvg,HumidityLow,PressureMaxIn,PressureMinIn,WindSpeedMaxMPH,WindSpeedAvgMPH,GustSpeedMaxMPH,PrecipitationSumIn
2013-7-1,62,55,44,50,46,37,91,74,44,30.27,30.10,5,0,0,0.00
2013-7-2,65,54,40,54,45,38,93,74,46,30.24,30.13,2,0,0,0.00
2013-7-3,75,61,47,54,48,43,90,66,37,30.14,30.00,3,0,0,0.00
2013-7-4,82,72,62,64,59,52,82,66,45,30.01,29.91,3,1,0,0.00
2013-7-5,87,77,67,63,60,57,79,58,39,29.95,29.86,4,1,0,0.00
2013-7-6,90,77,68,66,62,60,81,63,39,29.91,29.84,5,1,0,0.00
2013-7-7,76,68,58,68,62,55,95,83,67,29.99,29.84,4,0,0,0.15
2013-7-8,65,58,54,63,56,53,96,92,84,30.03,29.94,3,0,0,0.43
2013-7-9,75,67,57,69,63,56,97,89,79,30.02,29.67,4,0,0,0.01
2013-7-10,70,66,62,65,58,53,94,75,56,29.93,29.66,5,1,0,0.04
2013-7-11,72,63,53,58,54,50,91,72,49,30.13,29.93,3,0,0,0.00
2013-7-12,83,71,58,64,58,54,85,66,46,30.10,29.99,5,1,0,0.00
2013-7-13,86,76,68,67,59,52,71,58,46,30.09,29.99,7,1,0,0.00
2013-7-14,88,75,64,65,61,55,85,63,41,30.19,30.09,5,1,0,0.00
2013-7-15,80,73,66,69,66,62,88,78,68,30.26,30.18,3,0,0,0.00
2013-7-16,90,77,65,78,72,62,94,84,57,30.22,30.09,4,0,0,0.23
2013-7-17,84,76,67,73,70,64,95,81,65,30.18,30.08,2,0,0,0.11
2013-7-18,85,73,69,76,71,68,97,93,73,30.08,29.68,5,0,0,1.28
2013-7-19,80,71,64,73,65,57,97,81,55,29.76,29.56,7,1,0,0.49
2013-7-20,68,59,47,58,51,45,90,74,63,30.06,29.73,11,1,0,0.00
2013-7-21,67,56,43,56,50,41,96,81,62,30.08,29.92,3,0,0,0.00
2013-7-22,82,68,56,70,60,50,94,76,57,29.92,29.56,4,1,0,0.35
2013-7-23,62,57,52,59,51,47,95,81,62,30.01,29.67,6,1,0,0.00
2013-7-24,71,60,49,55,50,46,91,72,49,30.07,29.99,2,0,0,0.00
2013-7-25,77,66,58,62,58,54,93,76,54,29.99,29.87,4,1,0,0.17
2013-7-26,64,57,48,62,56,47,95,94,91,29.94,29.84,3,0,0,0.70
2013-7-27,56,51,47,51,48,46,96,89,78,29.92,29.84,2,0,0,0.00
2013-7-28,53,50,47,52,49,45,96,94,89,29.98,29.76,2,0,0,0.33
2013-7-29,70,58,50,57,52,49,97,83,53,30.16,29.97,2,0,0,0.00
2013-7-30,76,65,52,63,58,50,92,78,57,30.15,30.04,4,0,0,0.00
2013-7-31,77,67,61,65,61,56,90,82,62,30.04,29.86,3,0,0,0.01